Time,TemperatureF,DewpointF,PressureIn,WindDirection,WindDirectionDegrees,WindSpeedMPH,WindSpeedGustMPH,Humidity,HourlyPrecipIn,Conditions,Clouds,dailyrainin,SoftwareType,DateUTC
2013-06-10 00:02:00,65.0,61.0,-100.00,East,100,5.0,9.0,89,-99.99,,,-99.99,,2013-06-10 05:02:00,
2013-06-10 00:12:00,64.0,61.0,-100.00,East,80,3.0,6.0,91,-99.99,,,-99.99,,2013-06-10 05:12:00,
2013-06-10 00:22:00,64.0,61.0,-100.00,East,80,3.0,6.0,91,-99.99,,,-99.99,,2013-06-10 05:22:00,
2013-06-10 00:32:00,64.0,61.0,-100.00,East,85,4.0,6.0,91,-99.99,,,-99.99,,2013-06-10 05:32:00,
2013-06-10 00:42:00,64.0,62.0,-100.00,ESE,115,9.0,10.0,93,-99.99,,,-99.99,,2013-06-10 05:42:00,
2013-06-10 00:52:00,64.0,62.0,-100.00,ESE,115,9.0,10.0,93,-99.99,,,-99.99,,2013-06-10 05:52:00,
2013-06-10 01:02:00,63.0,61.0,-100.00,SE,125,11.0,21.0,93,-99.99,,,-99.99,,2013-06-10 06:02:00,
2013-06-10 01:12:00,63.0,60.0,-100.00,ESE,115,10.0,16.0,92,-99.99,,,-99.99,,2013-06-10 06:12:00,
2013-06-10 01:22:00,63.0,60.0,-100.00,ESE,115,10.0,16.0,92,-99.99,,,-99.99,,2013-06-10 06:22:00,
2013-06-10 01:32:00,63.0,60.0,-100.00,ESE,115,10.0,16.0,92,-99.99,,,-99.99,,2013-06-10 06:32:00,
2013-06-10 01:42:00,62.0,60.0,-100.00,ESE,120,4.0,10.0,93,-99.99,,,-99.99,,2013-06-10 06:42:00,
2013-06-10 01:53:00,62.0,60.0,-100.00,ESE,120,4.0,10.0,93,-99.99,,,-99.99,,2013-06-10 06:53:00,
2013-06-10 02:02:00,62.0,59.0,-100.00,ESE,120,1.0,5.0,93,-99.99,,,-99.99,,2013-06-10 07:02:00,
2013-06-10 02:12:00,61.0,60.0,-100.00,WSW,250,1.0,3.0,95,-99.99,,,-99.99,,2013-06-10 07:12:00,
2013-06-10 02:22:00,61.0,60.0,-100.00,WSW,250,1.0,3.0,95,-99.99,,,-99.99,,2013-06-10 07:22:00,
2013-06-10 02:32:00,61.0,60.0,-100.00,WSW,250,1.0,3.0,95,-99.99,,,-99.99,,2013-06-10 07:32:00,
2013-06-10 02:42:00,60.0,59.0,-100.00,North,5,1.0,2.0,97,-99.99,,,-99.99,,2013-06-10 07:42:00,
2013-06-10 02:52:00,60.0,59.0,-100.00,North,5,1.0,2.0,97,-99.99,,,-99.99,,2013-06-10 07:52:00,
2013-06-10 03:02:00,60.0,59.0,-100.00,NE,40,2.0,4.0,97,-99.99,,,-99.99,,2013-06-10 08:02:00,
2013-06-10 03:12:00,60.0,59.0,-100.00,NE,45,2.0,4.0,96,-99.99,,,-99.99,,2013-06-10 08:12:00,
2013-06-10 03:22:00,60.0,59.0,-100.00,NE,45,2.0,4.0,96,-99.99,,,-99.99,,2013-06-10 08:22:00,
2013-06-10 03:32:00,60.0,59.0,-100.00,NE,45,2.0,4.0,96,-99.99,,,-99.99,,2013-06-10 08:32:00,
2013-06-10 03:42:00,60.0,59.0,-100.00,ENE,75,4.0,6.0,95,-99.99,,,-99.99,,2013-06-10 08:42:00,
2013-06-10 03:52:00,60.0,59.0,-100.00,ENE,75,4.0,6.0,95,-99.99,,,-99.99,,2013-06-10 08:52:00,
2013-06-10 04:02:00,60.0,59.0,-100.00,ENE,75,4.0,6.0,95,-99.99,,,-99.99,,2013-06-10 09:02:00,
2013-06-10 04:12:00,60.0,59.0,-100.00,ENE,75,4.0,6.0,95,-99.99,,,-99.99,,2013-06-10 09:12:00,
2013-06-10 04:32:00,61.0,60.0,-100.00,NE,45,4.0,6.0,96,-99.99,,,-99.99,,2013-06-10 09:32:00,
2013-06-10 04:43:00,61.0,60.0,-100.00,North,350,0.0,4.0,95,-99.99,,,-99.99,,2013-06-10 09:43:00,
2013-06-10 04:53:00,61.0,60.0,-100.00,North,350,0.0,4.0,95,-99.99,,,-99.99,,2013-06-10 09:53:00,
2013-06-10 05:03:00,61.0,60.0,-100.00,NW,320,0.0,2.0,96,-99.99,,,-99.99,,2013-06-10 10:03:00,
2013-06-10 05:12:00,61.0,60.0,-100.00,South,185,1.0,2.0,96,-99.99,,,-99.99,,2013-06-10 10:12:00,
2013-06-10 05:22:00,61.0,60.0,-100.00,South,185,1.0,2.0,96,-99.99,,,-99.99,,2013-06-10 10:22:00,
2013-06-10 05:33:00,61.0,60.0,-100.00,South,170,2.0,3.0,97,-99.99,,,-99.99,,2013-06-10 10:33:00,
2013-06-10 05:42:00,61.0,60.0,-100.00,NNW,335,2.0,4.0,97,-99.99,,,-99.99,,2013-06-10 10:42:00,
2013-06-10 05:52:00,61.0,60.0,-100.00,NNW,335,2.0,4.0,97,-99.99,,,-99.99,,2013-06-10 10:52:00,
2013-06-10 06:03:00,61.0,60.0,-100.00,NNW,330,1.0,2.0,97,-99.99,,,-99.99,,2013-06-10 11:03:00,
2013-06-10 06:12:00,60.0,60.0,-100.00,ESE,110,1.0,4.0,97,-99.99,,,-99.99,,2013-06-10 11:12:00,
2013-06-10 06:22:00,60.0,60.0,-100.00,ESE,110,1.0,4.0,97,-99.99,,,-99.99,,2013-06-10 11:22:00,
2013-06-10 06:32:00,60.0,60.0,-100.00,East,95,4.0,4.0,97,-99.99,,,-99.99,,2013-06-10 11:32:00,
2013-06-10 06:42:00,60.0,60.0,-100.00,East,95,4.0,4.0,97,-99.99,,,-99.99,,2013-06-10 11:42:00,
2013-06-10 06:52:00,60.0,60.0,-100.00,East,95,4.0,4.0,97,-99.99,,,-99.99,,2013-06-10 11:52:00,
2013-06-10 07:02:00,61.0,60.0,-100.00,South,170,1.0,2.0,97,-99.99,,,-99.99,,2013-06-10 12:02:00,
2013-06-10 07:12:00,62.0,61.0,-100.00,ESE,120,2.0,4.0,97,-99.99,,,-99.99,,2013-06-10 12:12:00,
2013-06-10 07:22:00,62.0,61.0,-100.00,ESE,120,2.0,4.0,97,-99.99,,,-99.99,,2013-06-10 12:22:00,
2013-06-10 07:32:00,63.0,61.0,-100.00,SSE,165,2.0,4.0,95,-99.99,,,-99.99,,2013-06-10 12:32:00,
2013-06-10 07:42:00,64.0,62.0,-100.00,SSW,210,0.0,1.0,92,-99.99,,,-99.99,,2013-06-10 12:42:00,
2013-06-10 07:52:00,64.0,62.0,-100.00,SSW,210,0.0,1.0,92,-99.99,,,-99.99,,2013-06-10 12:52:00,
2013-06-10 08:02:00,65.0,61.0,-100.00,South,190,1.0,2.0,89,-99.99,,,-99.99,,2013-06-10 13:02:00,
2013-06-10 08:12:00,66.0,62.0,-100.00,East,85,1.0,2.0,85,-99.99,,,-99.99,,2013-06-10 13:12:00,
2013-06-10 08:22:00,66.0,62.0,-100.00,East,85,1.0,2.0,85,-99.99,,,-99.99,,2013-06-10 13:22:00,
2013-06-10 08:32:00,67.0,63.0,-100.00,West,270,3.0,5.0,87,-99.99,,,-99.99,,2013-06-10 13:32:00,
2013-06-10 08:42:00,67.0,63.0,-100.00,West,270,3.0,5.0,87,-99.99,,,-99.99,,2013-06-10 13:42:00,
2013-06-10 08:52:00,67.0,63.0,-100.00,West,270,3.0,5.0,87,-99.99,,,-99.99,,2013-06-10 13:52:00,
2013-06-10 09:00:00,71.0,62.0,-100.00,NNE,15,2.0,4.0,74,-99.99,,,-99.99,,2013-06-10 14:00:00,
2013-06-10 09:02:00,68.0,63.0,-100.00,West,280,4.0,6.0,84,-99.99,,,-99.99,,2013-06-10 14:02:00,
2013-06-10 09:12:00,69.0,62.0,-100.00,WNW,285,4.0,7.0,81,-99.99,,,-99.99,,2013-06-10 14:12:00,
2013-06-10 09:22:00,69.0,62.0,-100.00,WNW,285,4.0,7.0,81,-99.99,,,-99.99,,2013-06-10 14:22:00,
2013-06-10 09:32:00,71.0,62.0,-100.00,NNE,15,2.0,4.0,74,-99.99,,,-99.99,,2013-06-10 14:32:00,
2013-06-10 09:42:00,71.0,62.0,-100.00,NNE,15,2.0,4.0,74,-99.99,,,-99.99,,2013-06-10 14:42:00,
2013-06-10 09:52:00,71.0,62.0,-100.00,NNE,15,2.0,4.0,74,-99.99,,,-99.99,,2013-06-10 14:52:00,
2013-06-10 10:33:00,73.0,63.0,-100.00,NNW,340,4.0,6.0,70,-99.99,,,-99.99,,2013-06-10 15:33:00,
2013-06-10 10:43:00,72.0,62.0,-100.00,SE,125,3.0,6.0,72,-99.99,,,-99.99,,2013-06-10 15:43:00,
2013-06-10 10:53:00,72.0,62.0,-100.00,SE,125,3.0,6.0,72,-99.99,,,-99.99,,2013-06-10 15:53:00,
2013-06-10 11:03:00,72.0,62.0,-100.00,WNW,290,1.0,3.0,69,-99.99,,,-99.99,,2013-06-10 16:03:00,
2013-06-10 11:12:00,73.0,61.0,-100.00,ESE,110,2.0,6.0,68,-99.99,,,-99.99,,2013-06-10 16:12:00,
2013-06-10 11:23:00,73.0,61.0,-100.00,ESE,110,2.0,6.0,68,-99.99,,,-99.99,,2013-06-10 16:23:00,
2013-06-10 11:33:00,73.0,61.0,-100.00,ESE,110,2.0,6.0,68,-99.99,,,-99.99,,2013-06-10 16:33:00,
2013-06-10 11:43:00,72.0,61.0,-100.00,South,180,2.0,4.0,68,-99.99,,,-99.99,,2013-06-10 16:43:00,
2013-06-10 11:53:00,72.0,61.0,-100.00,South,180,2.0,4.0,68,-99.99,,,-99.99,,2013-06-10 16:53:00,
2013-06-10 12:03:00,74.0,62.0,-100.00,SW,220,2.0,5.0,67,-99.99,,,-99.99,,2013-06-10 17:03:00,
2013-06-10 12:14:00,74.0,62.0,-100.00,SW,220,2.0,5.0,67,-99.99,,,-99.99,,2013-06-10 17:14:00,
2013-06-10 12:27:00,74.0,62.0,-100.00,SW,220,2.0,5.0,67,-99.99,,,-99.99,,2013-06-10 17:27:00,
2013-06-10 12:38:00,75.0,64.0,-100.00,SW,220,5.0,9.0,68,-99.99,,,-99.99,,2013-06-10 17:38:00,
2013-06-10 12:48:00,73.0,61.0,-100.00,WNW,285,4.0,9.0,66,-99.99,,,-99.99,,2013-06-10 17:48:00,
2013-06-10 12:58:00,73.0,61.0,-100.00,WNW,285,4.0,9.0,66,-99.99,,,-99.99,,2013-06-10 17:58:00,
2013-06-10 13:07:00,73.0,62.0,-100.00,SW,225,2.0,9.0,68,-99.99,,,-99.99,,2013-06-10 18:07:00,
2013-06-10 13:14:00,76.0,63.0,-100.00,WSW,245,4.0,11.0,65,-99.99,,,-99.99,,2013-06-10 18:14:00,
2013-06-10 13:25:00,76.0,63.0,-100.00,WSW,245,4.0,11.0,65,-99.99,,,-99.99,,2013-06-10 18:25:00,
2013-06-10 13:35:00,75.0,62.0,-100.00,WSW,240,8.0,11.0,65,-99.99,,,-99.99,,2013-06-10 18:35:00,
2013-06-10 13:48:00,76.0,61.0,-100.00,West,280,5.0,11.0,59,-99.99,,,-99.99,,2013-06-10 18:48:00,
2013-06-10 13:55:00,76.0,61.0,-100.00,West,280,5.0,11.0,59,-99.99,,,-99.99,,2013-06-10 18:55:00,
2013-06-10 14:03:00,75.0,61.0,-100.00,West,275,9.0,11.0,62,-99.99,,,-99.99,,2013-06-10 19:03:00,
2013-06-10 14:13:00,77.0,61.0,-100.00,NW,305,10.0,13.0,58,-99.99,,,-99.99,,2013-06-10 19:13:00,
2013-06-10 14:22:00,77.0,61.0,-100.00,NW,305,10.0,13.0,58,-99.99,,,-99.99,,2013-06-10 19:22:00,
2013-06-10 14:33:00,76.0,61.0,-100.00,NW,315,8.0,12.0,61,-99.99,,,-99.99,,2013-06-10 19:33:00,
2013-06-10 14:43:00,77.0,61.0,-100.00,West,275,8.0,17.0,57,-99.99,,,-99.99,,2013-06-10 19:43:00,
2013-06-10 14:53:00,77.0,61.0,-100.00,West,275,8.0,17.0,57,-99.99,,,-99.99,,2013-06-10 19:53:00,
2013-06-10 15:03:00,78.0,61.0,-100.00,West,275,7.0,11.0,57,-99.99,,,-99.99,,2013-06-10 20:03:00,
2013-06-10 15:12:00,78.0,62.0,-100.00,West,280,7.0,11.0,59,-99.99,,,-99.99,,2013-06-10 20:12:00,
2013-06-10 15:22:00,78.0,62.0,-100.00,West,280,7.0,11.0,59,-99.99,,,-99.99,,2013-06-10 20:22:00,
2013-06-10 15:32:00,78.0,62.0,-100.00,WSW,255,11.0,14.0,57,-99.99,,,-99.99,,2013-06-10 20:32:00,
2013-06-10 15:43:00,77.0,61.0,-100.00,West,260,5.0,16.0,58,-99.99,,,-99.99,,2013-06-10 20:43:00,
2013-06-10 15:53:00,77.0,61.0,-100.00,West,260,5.0,16.0,58,-99.99,,,-99.99,,2013-06-10 20:53:00,
2013-06-10 16:02:00,78.0,62.0,-100.00,West,270,6.0,13.0,57,-99.99,,,-99.99,,2013-06-10 21:02:00,
2013-06-10 16:12:00,79.0,61.0,-100.00,West,275,13.0,17.0,55,-99.99,,,-99.99,,2013-06-10 21:12:00,
2013-06-10 16:22:00,79.0,61.0,-100.00,West,275,13.0,17.0,55,-99.99,,,-99.99,,2013-06-10 21:22:00,
2013-06-10 16:33:00,79.0,61.0,-100.00,West,275,13.0,17.0,55,-99.99,,,-99.99,,2013-06-10 21:33:00,
2013-06-10 16:43:00,78.0,59.0,-100.00,West,270,9.0,15.0,53,-99.99,,,-99.99,,2013-06-10 21:43:00,
2013-06-10 16:53:00,78.0,59.0,-100.00,West,270,9.0,15.0,53,-99.99,,,-99.99,,2013-06-10 21:53:00,
2013-06-10 17:03:00,78.0,60.0,-100.00,WNW,300,4.0,14.0,54,-99.99,,,-99.99,,2013-06-10 22:03:00,
2013-06-10 17:13:00,77.0,59.0,-100.00,WNW,285,5.0,14.0,54,-99.99,,,-99.99,,2013-06-10 22:13:00,
2013-06-10 17:22:00,77.0,59.0,-100.00,WNW,285,5.0,14.0,54,-99.99,,,-99.99,,2013-06-10 22:22:00,
2013-06-10 17:33:00,77.0,59.0,-100.00,West,265,8.0,14.0,54,-99.99,,,-99.99,,2013-06-10 22:33:00,
2013-06-10 17:42:00,78.0,60.0,-100.00,SW,235,11.0,14.0,54,-99.99,,,-99.99,,2013-06-10 22:42:00,
2013-06-10 17:52:00,78.0,60.0,-100.00,SW,235,11.0,14.0,54,-99.99,,,-99.99,,2013-06-10 22:52:00,
2013-06-10 18:02:00,78.0,60.0,-100.00,NW,305,10.0,15.0,54,-99.99,,,-99.99,,2013-06-10 23:02:00,
2013-06-10 18:12:00,78.0,59.0,-100.00,WSW,250,9.0,16.0,52,-99.99,,,-99.99,,2013-06-10 23:12:00,
2013-06-10 18:22:00,78.0,59.0,-100.00,WSW,250,9.0,16.0,52,-99.99,,,-99.99,,2013-06-10 23:22:00,
2013-06-10 18:32:00,78.0,59.0,-100.00,West,260,9.0,15.0,52,-99.99,,,-99.99,,2013-06-10 23:32:00,
2013-06-10 18:42:00,78.0,59.0,-100.00,West,260,9.0,15.0,52,-99.99,,,-99.99,,2013-06-10 23:42:00,
2013-06-10 18:52:00,78.0,59.0,-100.00,West,260,9.0,15.0,52,-99.99,,,-99.99,,2013-06-10 23:52:00,
2013-06-10 19:02:00,77.0,59.0,-100.00,WNW,285,5.0,13.0,53,-99.99,,,-99.99,,2013-06-11 00:02:00,
2013-06-10 19:12:00,77.0,59.0,-100.00,WNW,285,5.0,13.0,53,-99.99,,,-99.99,,2013-06-11 00:12:00,
2013-06-10 19:22:00,77.0,59.0,-100.00,WNW,285,5.0,13.0,53,-99.99,,,-99.99,,2013-06-11 00:22:00,
2013-06-10 19:32:00,76.0,59.0,-100.00,West,270,6.0,14.0,54,-99.99,,,-99.99,,2013-06-11 00:32:00,
2013-06-10 19:43:00,76.0,60.0,-100.00,West,280,8.0,11.0,57,-99.99,,,-99.99,,2013-06-11 00:43:00,
2013-06-10 19:52:00,76.0,60.0,-100.00,West,280,8.0,11.0,57,-99.99,,,-99.99,,2013-06-11 00:52:00,
2013-06-10 20:02:00,75.0,60.0,-100.00,West,280,8.0,13.0,59,-99.99,,,-99.99,,2013-06-11 01:02:00,
2013-06-10 20:12:00,74.0,60.0,-100.00,WNW,290,7.0,13.0,61,-99.99,,,-99.99,,2013-06-11 01:12:00,
2013-06-10 20:22:00,74.0,60.0,-100.00,WNW,290,7.0,13.0,61,-99.99,,,-99.99,,2013-06-11 01:22:00,
2013-06-10 20:32:00,73.0,60.0,-100.00,West,270,5.0,12.0,64,-99.99,,,-99.99,,2013-06-11 01:32:00,
2013-06-10 20:42:00,72.0,60.0,-100.00,West,275,6.0,7.0,65,-99.99,,,-99.99,,2013-06-11 01:42:00,
2013-06-10 20:53:00,72.0,60.0,-100.00,West,275,6.0,7.0,65,-99.99,,,-99.99,,2013-06-11 01:53:00,
2013-06-10 21:02:00,71.0,60.0,-100.00,WNW,285,4.0,7.0,67,-99.99,,,-99.99,,2013-06-11 02:02:00,
2013-06-10 21:12:00,71.0,60.0,-100.00,West,280,4.0,6.0,70,-99.99,,,-99.99,,2013-06-11 02:12:00,
2013-06-10 21:22:00,71.0,60.0,-100.00,West,280,4.0,6.0,70,-99.99,,,-99.99,,2013-06-11 02:22:00,
2013-06-10 21:32:00,71.0,60.0,-100.00,West,280,4.0,6.0,70,-99.99,,,-99.99,,2013-06-11 02:32:00,
2013-06-10 21:42:00,69.0,60.0,-100.00,West,280,3.0,6.0,73,-99.99,,,-99.99,,2013-06-11 02:42:00,
2013-06-10 21:52:00,69.0,60.0,-100.00,West,280,3.0,6.0,73,-99.99,,,-99.99,,2013-06-11 02:52:00,
2013-06-10 22:02:00,68.0,60.0,-100.00,West,275,4.0,6.0,74,-99.99,,,-99.99,,2013-06-11 03:02:00,
2013-06-10 22:13:00,68.0,60.0,-100.00,West,270,2.0,5.0,75,-99.99,,,-99.99,,2013-06-11 03:13:00,
2013-06-10 22:22:00,68.0,60.0,-100.00,West,270,2.0,5.0,75,-99.99,,,-99.99,,2013-06-11 03:22:00,
2013-06-10 22:32:00,68.0,59.0,-100.00,WNW,285,1.0,3.0,75,-99.99,,,-99.99,,2013-06-11 03:32:00,
2013-06-10 22:43:00,66.0,60.0,-100.00,WNW,290,2.0,3.0,80,-99.99,,,-99.99,,2013-06-11 03:43:00,
2013-06-10 22:53:00,66.0,60.0,-100.00,WNW,290,2.0,3.0,80,-99.99,,,-99.99,,2013-06-11 03:53:00,
2013-06-10 23:03:00,66.0,59.0,-100.00,West,280,2.0,4.0,79,-99.99,,,-99.99,,2013-06-11 04:03:00,
2013-06-10 23:12:00,65.0,59.0,-100.00,WNW,295,2.0,3.0,81,-99.99,,,-99.99,,2013-06-11 04:12:00,
2013-06-10 23:23:00,65.0,59.0,-100.00,WNW,295,2.0,3.0,81,-99.99,,,-99.99,,2013-06-11 04:23:00,
2013-06-10 23:33:00,65.0,59.0,-100.00,West,270,1.0,2.0,81,-99.99,,,-99.99,,2013-06-11 04:33:00,
2013-06-10 23:42:00,65.0,59.0,-100.00,West,270,1.0,2.0,81,-99.99,,,-99.99,,2013-06-11 04:42:00,
2013-06-10 23:53:00,65.0,59.0,-100.00,West,270,1.0,2.0,81,-99.99,,,-99.99,,2013-06-11 04:53:00,